Location: Eekst
(53.0191°N, 6.7366°E)
Time: 11:44:07
(UTC+00:00)

Cosmos 1980 - Pass Details

Date: 15 May 2026
Orbit: 838 x 846 km, 71.0° (Epoch: 9 June)

Event Time Altitude Azimuth Distance (km) Brightness Sun altitude
Rises 22:39:31 0° 328° (NNW) 3,407 8.2 -17.1°
Reaches altitude 10° 22:41:58 10° 330° (NNW) 2,470 7.3 -17.2°
Maximum altitude 22:47:39 76° 56° (ENE) 874 3.8 -17.4°
Enters shadow 22:51:08 24° 139° (SE) 1,668 4.8 -17.5°
